Weather in Atig

Russia / Sverdlovsk Oblast     56°41′10″N   59°25′17″E
temp.,
°C
wind,
m/s
gust,
m/s
humid.,
%
clouds,
%
prec.,
mm/h
press.,
hPa
HPBL,
m
18 april, sun
sun1823:00+2wnw22775 0.0 102211
02:00+1w21815 0.0 102011
05:000wsw28875 0.0 1020150
08:00+4wnw411755 0.0 1018577
11:00+3n5891100 0.1 1020757
14:00+3nne574488 0.3 10241721
17:00+3ne563999 0.3 10262077
20:00−1ne510465 0.0 1029573
19 april, mon
mon1923:00−4ene310550 0.0 1032361
02:00−6ene13660 0.0 103388
05:00−7ene12730 0.0 103535
08:00−3e36440 0.0 10351004
11:000ene34335 0.0 10351621
14:00+2ene23295 0.0 10341930
17:00+3ne233156 0.0 10332042
20:00−2e11506 0.0 103410
20 april, tue
tue2023:00−4ssw11575 0.0 103510
02:00−4sw21590 0.0 103512
05:00−4wsw246289 0.0 103693
08:00−1w36505 0.0 1035356
11:00+4wnw463616 0.0 10341227
14:00+6nw46320 0.0 10321422
17:00+6nw46384 0.0 10311428
20:00+2wnw25630 0.0 103185
21 april, wed
wed2123:00−1wnw22730 0.0 103212
02:00−2w11750 0.0 103210
05:00−2w11760 0.0 103310
08:00+2nw12600 0.0 1033207
11:00+8wnw11464 0.0 1033928
14:00+11ese01395 0.0 10311266
17:00+11se22385 0.0 10311403
20:00+7se22585 0.0 103214
22 april, thu
thu2223:00+4se237395 0.0 103340
02:00+2se227611 0.0 103328
05:00+2sse2776100 0.0 1034123
08:00+6s256025 0.0 1034183
11:00+11s343792 0.0 10331248
14:00+13ssw3533100 0.0 10321715
17:00+12sw3639100 0.0 10321502
20:00+8ssw1153100 0.0 103210